Location: Dentlein
(49.1477°N, 10.4231°E)
Time: 02:03:11
(UTC+00:00)

Tiangong - Visible Passes

Search period start: 18 July 2024 00:00
Search period end: 28 July 2024 00:00
Orbit: 374 x 377 km, 41.5° (Epoch: 17 July)

Date Brightness Start Highest point End Pass type
(mag) Time Alt. Az. Time Alt. Az. Time Alt. Az.
18 Jul -0.6 02:28:08 13° SW 02:29:53 20° S 02:32:15 10° SE visible
19 Jul -0.2 01:28:34 17° SSE 01:28:34 17° SSE 01:29:53 10° SE visible
20 Jul -0.7 02:01:07 19° S 02:01:17 19° S 02:03:35 10° SE visible
21 Jul -0.3 02:33:50 13° SW 02:34:51 14° SSW 02:36:39 10° SSE visible
26 Jul 0.2 20:18:25 10° S 20:18:32 10° S 20:18:32 10° S visible
27 Jul 0.0 20:50:22 10° SSW 20:51:10 14° SSW 20:51:10 14° SSW visible
